Time,TemperatureF,DewpointF,PressureIn,WindDirection,WindDirectionDegrees,WindSpeedMPH,WindSpeedGustMPH,Humidity,HourlyPrecipIn,Conditions,Clouds,dailyrainin,SoftwareType,DateUTC
2013-07-19 00:00:00,67.0,63.3,29.92,NW,321,0.0,0.0,88,0.00,,,0.43,Wunderground v.1.15,2013-07-19 06:00:00,
2013-07-19 00:05:00,67.0,63.3,29.91,NW,321,0.0,0.0,88,0.00,,,0.00,Wunderground v.1.15,2013-07-19 06:05:00,
2013-07-19 00:15:00,67.0,63.3,29.90,NW,321,0.0,0.0,88,0.00,,,0.00,Wunderground v.1.15,2013-07-19 06:15:00,
2013-07-19 00:20:00,67.0,63.3,29.90,NW,321,0.0,0.0,88,0.00,,,0.00,Wunderground v.1.15,2013-07-19 06:20:00,
2013-07-19 00:25:00,66.9,63.2,29.90,NW,321,0.0,0.0,88,0.00,,,0.00,Wunderground v.1.15,2013-07-19 06:25:00,
2013-07-19 00:35:00,66.9,63.2,29.90,NW,321,0.0,0.0,88,0.00,,,0.00,Wunderground v.1.15,2013-07-19 06:35:00,
2013-07-19 00:45:00,66.9,63.2,29.90,NW,321,0.0,0.0,88,0.00,,,0.00,Wunderground v.1.15,2013-07-19 06:45:00,
2013-07-19 00:50:00,66.8,63.1,29.90,NW,321,0.0,0.0,88,0.00,,,0.00,Wunderground v.1.15,2013-07-19 06:50:00,
2013-07-19 00:55:00,66.8,63.1,29.90,NW,321,0.0,0.0,88,0.00,,,0.00,Wunderground v.1.15,2013-07-19 06:55:00,
2013-07-19 01:00:00,66.8,63.1,29.90,NW,321,0.0,0.0,88,0.00,,,0.00,Wunderground v.1.15,2013-07-19 07:00:00,
2013-07-19 01:05:00,66.7,63.0,29.89,NW,321,0.0,0.0,88,0.00,,,0.00,Wunderground v.1.15,2013-07-19 07:05:00,
2013-07-19 01:15:00,66.7,63.0,29.89,NW,321,0.0,0.0,88,0.00,,,0.00,Wunderground v.1.15,2013-07-19 07:15:00,
2013-07-19 01:20:00,66.7,63.0,29.89,NW,321,0.0,0.0,88,0.00,,,0.00,Wunderground v.1.15,2013-07-19 07:20:00,
2013-07-19 01:25:00,66.7,63.0,29.89,NW,321,0.0,0.0,88,0.00,,,0.00,Wunderground v.1.15,2013-07-19 07:25:00,
2013-07-19 01:30:00,66.7,63.0,29.89,NW,321,0.0,0.0,88,0.00,,,0.00,Wunderground v.1.15,2013-07-19 07:30:00,
2013-07-19 01:35:00,66.6,62.9,29.89,NW,321,0.0,0.0,88,0.00,,,0.00,Wunderground v.1.15,2013-07-19 07:35:00,
2013-07-19 01:45:00,66.6,62.9,29.88,NW,321,0.0,0.0,88,0.00,,,0.00,Wunderground v.1.15,2013-07-19 07:45:00,
2013-07-19 01:50:00,66.5,62.8,29.88,NW,321,0.0,0.0,88,0.00,,,0.00,Wunderground v.1.15,2013-07-19 07:50:00,
2013-07-19 01:55:00,66.5,62.8,29.88,NW,321,0.0,0.0,88,0.00,,,0.00,Wunderground v.1.15,2013-07-19 07:55:00,
2013-07-19 02:00:00,66.5,62.8,29.87,NW,321,0.0,0.0,88,0.00,,,0.00,Wunderground v.1.15,2013-07-19 08:00:00,
2013-07-19 02:05:00,66.5,62.8,29.86,NW,321,0.0,0.0,88,0.00,,,0.00,Wunderground v.1.15,2013-07-19 08:05:00,
2013-07-19 02:15:00,66.4,62.7,29.86,NW,321,0.0,0.0,88,0.00,,,0.00,Wunderground v.1.15,2013-07-19 08:15:00,
2013-07-19 02:25:00,66.5,63.2,29.85,NW,321,0.0,0.0,89,0.00,,,0.00,Wunderground v.1.15,2013-07-19 08:25:00,
2013-07-19 02:30:00,66.4,63.1,29.86,NW,321,0.0,0.0,89,0.00,,,0.00,Wunderground v.1.15,2013-07-19 08:30:00,
2013-07-19 02:35:00,66.3,62.6,29.86,NW,321,0.0,0.0,88,0.00,,,0.00,Wunderground v.1.15,2013-07-19 08:35:00,
2013-07-19 02:40:00,66.3,62.6,29.86,NW,321,0.0,0.0,88,0.00,,,0.00,Wunderground v.1.15,2013-07-19 08:40:00,
2013-07-19 02:50:00,66.3,62.6,29.86,NW,321,0.0,0.0,88,0.00,,,0.00,Wunderground v.1.15,2013-07-19 08:50:00,
2013-07-19 02:55:00,66.2,62.5,29.86,NW,321,0.0,0.0,88,0.00,,,0.00,Wunderground v.1.15,2013-07-19 08:55:00,
2013-07-19 03:05:00,66.2,62.5,29.85,NW,321,0.0,0.0,88,0.00,,,0.00,Wunderground v.1.15,2013-07-19 09:05:00,
2013-07-19 03:15:00,66.1,62.4,29.85,NW,321,0.0,0.0,88,0.00,,,0.00,Wunderground v.1.15,2013-07-19 09:15:00,
2013-07-19 03:20:00,66.2,62.5,29.85,NW,321,0.0,0.0,88,0.00,,,0.00,Wunderground v.1.15,2013-07-19 09:20:00,
2013-07-19 03:25:00,66.2,62.5,29.85,NW,321,0.0,0.0,88,0.00,,,0.00,Wunderground v.1.15,2013-07-19 09:25:00,
2013-07-19 03:30:00,66.1,62.4,29.85,NW,321,0.0,0.0,88,0.00,,,0.00,Wunderground v.1.15,2013-07-19 09:30:00,
2013-07-19 03:35:00,66.1,62.4,29.85,NW,321,0.0,0.0,88,0.00,,,0.00,Wunderground v.1.15,2013-07-19 09:35:00,
2013-07-19 03:40:00,66.1,62.4,29.85,NW,321,0.0,0.0,88,0.00,,,0.00,Wunderground v.1.15,2013-07-19 09:40:00,
2013-07-19 03:45:00,66.1,62.4,29.84,NW,321,0.0,0.0,88,0.00,,,0.00,Wunderground v.1.15,2013-07-19 09:45:00,
2013-07-19 03:50:00,66.1,62.4,29.84,NW,321,0.0,0.0,88,0.00,,,0.00,Wunderground v.1.15,2013-07-19 09:50:00,
2013-07-19 03:55:00,66.1,62.4,29.84,NW,321,0.0,0.0,88,0.00,,,0.00,Wunderground v.1.15,2013-07-19 09:55:00,
2013-07-19 04:05:00,66.2,62.5,29.85,NW,321,0.0,0.0,88,0.00,,,0.00,Wunderground v.1.15,2013-07-19 10:05:00,
2013-07-19 04:15:00,66.1,62.4,29.85,NW,321,0.0,0.0,88,0.00,,,0.00,Wunderground v.1.15,2013-07-19 10:15:00,
2013-07-19 04:20:00,66.1,62.4,29.84,NW,321,0.0,0.0,88,0.00,,,0.00,Wunderground v.1.15,2013-07-19 10:20:00,
2013-07-19 04:25:00,66.1,62.4,29.84,NW,321,0.0,0.0,88,0.00,,,0.00,Wunderground v.1.15,2013-07-19 10:25:00,
2013-07-19 04:30:00,66.0,62.3,29.84,NW,321,0.0,0.0,88,0.00,,,0.00,Wunderground v.1.15,2013-07-19 10:30:00,
2013-07-19 04:35:00,66.0,62.3,29.84,NW,321,0.0,0.0,88,0.00,,,0.00,Wunderground v.1.15,2013-07-19 10:35:00,
2013-07-19 04:40:00,66.0,62.3,29.84,NW,321,0.0,0.0,88,0.00,,,0.00,Wunderground v.1.15,2013-07-19 10:40:00,
2013-07-19 04:45:00,65.9,62.2,29.84,NW,321,0.0,0.0,88,0.00,,,0.00,Wunderground v.1.15,2013-07-19 10:45:00,
2013-07-19 04:50:00,65.9,62.2,29.84,NW,321,0.0,0.0,88,0.00,,,0.00,Wunderground v.1.15,2013-07-19 10:50:00,
2013-07-19 04:55:00,65.9,62.2,29.84,NW,321,0.0,0.0,88,0.00,,,0.00,Wunderground v.1.15,2013-07-19 10:55:00,
2013-07-19 05:00:00,65.8,62.1,29.84,NW,321,0.0,0.0,88,0.00,,,0.00,Wunderground v.1.15,2013-07-19 11:00:00,
2013-07-19 05:05:00,65.8,62.1,29.85,NW,321,0.0,0.0,88,0.00,,,0.00,Wunderground v.1.15,2013-07-19 11:05:00,
2013-07-19 05:15:00,65.7,62.0,29.85,NW,319,0.0,0.0,88,0.00,,,0.00,Wunderground v.1.15,2013-07-19 11:15:00,
2013-07-19 05:20:00,65.7,62.0,29.85,NW,320,0.0,0.0,88,0.00,,,0.00,Wunderground v.1.15,2013-07-19 11:20:00,
2013-07-19 05:25:00,65.7,62.0,29.85,NW,320,0.0,0.0,88,0.00,,,0.00,Wunderground v.1.15,2013-07-19 11:25:00,
2013-07-19 05:30:00,65.6,61.9,29.85,NW,320,0.0,0.0,88,0.00,,,0.00,Wunderground v.1.15,2013-07-19 11:30:00,
2013-07-19 05:35:00,65.6,61.9,29.85,NW,319,0.0,0.0,88,0.00,,,0.00,Wunderground v.1.15,2013-07-19 11:35:00,
2013-07-19 05:45:00,65.5,61.9,29.85,NW,320,0.0,0.0,88,0.00,,,0.00,Wunderground v.1.15,2013-07-19 11:45:00,
2013-07-19 05:55:00,65.4,61.8,29.85,NW,319,0.0,0.0,88,0.00,,,0.00,Wunderground v.1.15,2013-07-19 11:55:00,
2013-07-19 06:00:00,65.4,61.8,29.86,NW,319,0.0,0.0,88,0.00,,,0.00,Wunderground v.1.15,2013-07-19 12:00:00,
2013-07-19 06:05:00,65.3,61.7,29.85,NW,320,0.0,0.0,88,0.00,,,0.00,Wunderground v.1.15,2013-07-19 12:05:00,
2013-07-19 06:15:00,65.2,61.9,29.85,NW,319,0.0,0.0,89,0.00,,,0.00,Wunderground v.1.15,2013-07-19 12:15:00,
2013-07-19 06:20:00,65.2,61.9,29.85,NW,320,0.0,0.0,89,0.00,,,0.00,Wunderground v.1.15,2013-07-19 12:20:00,
2013-07-19 06:25:00,65.2,61.9,29.85,NW,319,0.0,0.0,89,0.00,,,0.00,Wunderground v.1.15,2013-07-19 12:25:00,
2013-07-19 06:30:00,65.2,61.9,29.86,NW,320,0.0,0.0,89,0.00,,,0.00,Wunderground v.1.15,2013-07-19 12:30:00,
2013-07-19 06:35:00,65.2,61.9,29.86,NW,319,0.0,0.0,89,0.00,,,0.00,Wunderground v.1.15,2013-07-19 12:35:00,
2013-07-19 06:45:00,65.2,61.9,29.85,NW,319,0.0,0.0,89,0.00,,,0.00,Wunderground v.1.15,2013-07-19 12:45:00,
2013-07-19 06:55:00,65.3,62.0,29.86,NW,320,0.0,0.0,89,0.00,,,0.00,Wunderground v.1.15,2013-07-19 12:55:00,
2013-07-19 07:00:00,65.4,62.1,29.86,NW,319,0.0,0.0,89,0.00,,,0.00,Wunderground v.1.15,2013-07-19 13:00:00,
2013-07-19 07:05:00,65.5,62.2,29.86,NW,320,0.0,0.0,89,0.00,,,0.00,Wunderground v.1.15,2013-07-19 13:05:00,
2013-07-19 07:15:00,65.7,62.4,29.87,NW,320,0.0,0.0,89,0.00,,,0.00,Wunderground v.1.15,2013-07-19 13:15:00,
2013-07-19 07:20:00,65.8,62.1,29.87,NW,320,0.0,0.0,88,0.00,,,0.00,Wunderground v.1.15,2013-07-19 13:20:00,
2013-07-19 07:25:00,65.9,62.2,29.87,NW,320,0.0,0.0,88,0.00,,,0.00,Wunderground v.1.15,2013-07-19 13:25:00,
2013-07-19 07:30:00,65.9,62.6,29.88,NW,319,0.0,0.0,89,0.00,,,0.00,Wunderground v.1.15,2013-07-19 13:30:00,
2013-07-19 07:35:00,66.0,62.7,29.88,NW,320,0.0,0.0,89,0.00,,,0.00,Wunderground v.1.15,2013-07-19 13:35:00,
2013-07-19 07:40:00,66.2,62.5,29.88,NW,320,0.0,0.0,88,0.00,,,0.00,Wunderground v.1.15,2013-07-19 13:40:00,
2013-07-19 07:45:00,66.3,62.6,29.88,NW,319,0.0,0.0,88,0.00,,,0.00,Wunderground v.1.15,2013-07-19 13:45:00,
2013-07-19 07:50:00,66.5,62.8,29.89,NW,319,0.0,0.0,88,0.00,,,0.00,Wunderground v.1.15,2013-07-19 13:50:00,
2013-07-19 07:55:00,66.7,63.0,29.88,NW,320,0.0,0.0,88,0.00,,,0.00,Wunderground v.1.15,2013-07-19 13:55:00,
2013-07-19 08:00:00,67.0,63.3,29.88,NW,320,0.0,0.0,88,0.00,,,0.00,Wunderground v.1.15,2013-07-19 14:00:00,
2013-07-19 08:05:00,67.2,63.2,29.89,NW,320,0.0,0.0,87,0.00,,,0.00,Wunderground v.1.15,2013-07-19 14:05:00,
2013-07-19 08:15:00,67.8,63.5,29.88,NW,319,0.0,0.0,86,0.00,,,0.00,Wunderground v.1.15,2013-07-19 14:15:00,
2013-07-19 08:20:00,68.2,63.9,29.88,NW,319,0.0,0.0,86,0.00,,,0.00,Wunderground v.1.15,2013-07-19 14:20:00,
2013-07-19 08:30:00,68.7,63.7,29.89,NW,319,0.0,0.0,84,0.00,,,0.00,Wunderground v.1.15,2013-07-19 14:30:00,
2013-07-19 08:35:00,68.9,63.5,29.89,NW,319,0.0,0.0,83,0.00,,,0.00,Wunderground v.1.15,2013-07-19 14:35:00,
2013-07-19 08:40:00,69.2,63.5,29.89,NW,319,0.0,0.0,82,0.00,,,0.00,Wunderground v.1.15,2013-07-19 14:40:00,
2013-07-19 08:45:00,69.4,63.7,29.89,West,269,0.0,0.0,82,0.00,,,0.00,Wunderground v.1.15,2013-07-19 14:45:00,
2013-07-19 08:50:00,69.6,63.5,29.89,West,269,0.0,0.0,81,0.00,,,0.00,Wunderground v.1.15,2013-07-19 14:50:00,
2013-07-19 08:55:00,69.9,63.4,29.88,West,269,0.0,0.0,80,0.00,,,0.00,Wunderground v.1.15,2013-07-19 14:55:00,
2013-07-19 09:00:00,70.2,63.4,29.89,WSW,252,0.0,0.0,79,0.00,,,0.00,Wunderground v.1.15,2013-07-19 15:00:00,
2013-07-19 09:05:00,70.6,63.4,29.89,WSW,248,0.0,0.0,78,0.00,,,0.00,Wunderground v.1.15,2013-07-19 15:05:00,
2013-07-19 09:15:00,71.3,63.7,29.88,WSW,248,0.0,0.0,77,0.00,,,0.00,Wunderground v.1.15,2013-07-19 15:15:00,
2013-07-19 09:20:00,71.8,64.2,29.88,WSW,248,0.0,0.0,77,0.00,,,0.00,Wunderground v.1.15,2013-07-19 15:20:00,
2013-07-19 09:25:00,72.2,63.8,29.88,WSW,249,0.0,0.0,75,0.00,,,0.00,Wunderground v.1.15,2013-07-19 15:25:00,
2013-07-19 09:30:00,72.7,63.9,29.87,WSW,249,0.0,0.0,74,0.00,,,0.00,Wunderground v.1.15,2013-07-19 15:30:00,
2013-07-19 09:40:00,73.3,64.1,29.87,WSW,249,0.0,0.0,73,0.00,,,0.00,Wunderground v.1.15,2013-07-19 15:40:00,
2013-07-19 09:45:00,73.6,64.0,29.87,WSW,249,0.0,0.0,72,0.00,,,0.00,Wunderground v.1.15,2013-07-19 15:45:00,
2013-07-19 09:50:00,73.7,63.7,29.87,WSW,249,0.0,0.0,71,0.00,,,0.00,Wunderground v.1.15,2013-07-19 15:50:00,
2013-07-19 09:55:00,73.9,63.1,29.87,WSW,249,0.0,0.0,69,0.00,,,0.00,Wunderground v.1.15,2013-07-19 15:55:00,
2013-07-19 10:00:00,73.9,62.7,29.87,WSW,250,0.0,0.0,68,0.00,,,0.00,Wunderground v.1.15,2013-07-19 16:00:00,
2013-07-19 10:05:00,73.9,62.7,29.87,WSW,249,0.0,0.0,68,0.00,,,0.00,Wunderground v.1.15,2013-07-19 16:05:00,
2013-07-19 10:15:00,74.0,63.2,29.87,WSW,249,0.0,0.0,69,0.00,,,0.00,Wunderground v.1.15,2013-07-19 16:15:00,
2013-07-19 10:20:00,74.1,63.3,29.87,WSW,249,0.0,0.0,69,0.00,,,0.00,Wunderground v.1.15,2013-07-19 16:20:00,
2013-07-19 10:25:00,74.2,63.0,29.87,WSW,249,0.0,0.0,68,0.00,,,0.00,Wunderground v.1.15,2013-07-19 16:25:00,
2013-07-19 10:30:00,74.4,63.1,29.87,WSW,249,0.0,0.0,68,0.00,,,0.00,Wunderground v.1.15,2013-07-19 16:30:00,
2013-07-19 10:35:00,74.5,62.8,29.86,WSW,249,0.0,0.0,67,0.00,,,0.00,Wunderground v.1.15,2013-07-19 16:35:00,
2013-07-19 10:40:00,74.7,63.4,29.86,WSW,249,0.0,0.0,68,0.00,,,0.00,Wunderground v.1.15,2013-07-19 16:40:00,
2013-07-19 10:45:00,74.9,62.8,29.86,WSW,249,0.0,0.0,66,0.00,,,0.00,Wunderground v.1.15,2013-07-19 16:45:00,
2013-07-19 10:50:00,75.2,62.6,29.86,WSW,249,0.0,0.0,65,0.00,,,0.00,Wunderground v.1.15,2013-07-19 16:50:00,
2013-07-19 10:55:00,75.9,62.8,29.86,WSW,249,0.0,0.0,64,0.00,,,0.00,Wunderground v.1.15,2013-07-19 16:55:00,
2013-07-19 11:00:00,76.4,63.3,29.86,WSW,249,0.0,0.0,64,0.00,,,0.00,Wunderground v.1.15,2013-07-19 17:00:00,
2013-07-19 11:05:00,77.0,63.4,29.85,WSW,249,0.0,0.0,63,0.00,,,0.00,Wunderground v.1.15,2013-07-19 17:05:00,
2013-07-19 11:15:00,77.5,63.0,29.85,WSW,245,0.0,0.0,61,0.00,,,0.00,Wunderground v.1.15,2013-07-19 17:15:00,
2013-07-19 11:20:00,77.6,63.1,29.85,SSE,164,0.0,0.0,61,0.00,,,0.00,Wunderground v.1.15,2013-07-19 17:20:00,
2013-07-19 11:25:00,77.9,63.4,29.85,SSE,164,0.0,0.0,61,0.00,,,0.00,Wunderground v.1.15,2013-07-19 17:25:00,
2013-07-19 11:30:00,78.4,63.4,29.85,SSE,163,0.0,0.0,60,0.00,,,0.00,Wunderground v.1.15,2013-07-19 17:30:00,
2013-07-19 11:35:00,78.7,63.2,29.84,SSE,159,0.0,0.0,59,0.00,,,0.00,Wunderground v.1.15,2013-07-19 17:35:00,
2013-07-19 11:40:00,79.1,63.5,29.84,SSE,159,0.0,0.0,59,0.00,,,0.00,Wunderground v.1.15,2013-07-19 17:40:00,
2013-07-19 11:45:00,79.5,62.9,29.84,SSE,159,0.0,0.0,57,0.00,,,0.00,Wunderground v.1.15,2013-07-19 17:45:00,
2013-07-19 11:55:00,80.7,64.5,29.82,SSE,159,0.0,0.0,58,0.00,,,0.00,Wunderground v.1.15,2013-07-19 17:55:00,
2013-07-19 12:00:00,81.2,64.5,29.82,SSE,159,0.0,0.0,57,0.00,,,0.00,Wunderground v.1.15,2013-07-19 18:00:00,
2013-07-19 12:05:00,81.7,64.0,29.82,SW,226,0.0,0.0,55,0.00,,,0.00,Wunderground v.1.15,2013-07-19 18:05:00,
2013-07-19 12:15:00,82.9,64.0,29.80,South,169,0.0,0.0,53,0.00,,,0.00,Wunderground v.1.15,2013-07-19 18:15:00,
2013-07-19 12:20:00,83.6,65.7,29.80,South,186,0.0,0.0,55,0.00,,,0.00,Wunderground v.1.15,2013-07-19 18:20:00,
2013-07-19 12:30:00,84.2,64.1,29.80,NE,40,0.0,0.0,51,0.00,,,0.00,Wunderground v.1.15,2013-07-19 18:30:00,
2013-07-19 12:35:00,84.1,64.0,29.80,East,82,0.0,0.0,51,0.00,,,0.00,Wunderground v.1.15,2013-07-19 18:35:00,
2013-07-19 12:40:00,84.2,64.7,29.80,ESE,114,0.0,0.0,52,0.00,,,0.00,Wunderground v.1.15,2013-07-19 18:40:00,
2013-07-19 12:45:00,84.5,63.8,29.80,East,91,0.0,0.0,50,0.00,,,0.00,Wunderground v.1.15,2013-07-19 18:45:00,
2013-07-19 12:50:00,84.9,63.0,29.79,NE,55,0.0,0.0,48,0.00,,,0.00,Wunderground v.1.15,2013-07-19 18:50:00,
2013-07-19 13:00:00,84.9,63.6,29.79,SE,141,0.0,0.0,49,0.00,,,0.00,Wunderground v.1.15,2013-07-19 19:00:00,
2013-07-19 13:05:00,85.0,64.3,29.78,ENE,65,0.0,0.0,50,0.00,,,0.00,Wunderground v.1.15,2013-07-19 19:05:00,
2013-07-19 13:15:00,84.9,63.0,29.78,East,86,0.0,0.0,48,0.00,,,0.00,Wunderground v.1.15,2013-07-19 19:15:00,
2013-07-19 13:20:00,84.5,62.7,29.78,East,86,0.0,0.0,48,0.00,,,0.00,Wunderground v.1.15,2013-07-19 19:20:00,
2013-07-19 13:25:00,84.1,63.5,29.79,North,360,0.0,0.0,50,0.00,,,0.00,Wunderground v.1.15,2013-07-19 19:25:00,
2013-07-19 13:35:00,84.0,63.4,29.78,NE,52,0.0,0.0,50,0.00,,,0.00,Wunderground v.1.15,2013-07-19 19:35:00,
2013-07-19 13:40:00,84.0,62.8,29.78,ENE,62,0.0,0.0,49,0.00,,,0.00,Wunderground v.1.15,2013-07-19 19:40:00,
2013-07-19 13:45:00,83.6,61.2,29.78,ESE,116,0.0,0.0,47,0.00,,,0.00,Wunderground v.1.15,2013-07-19 19:45:00,
2013-07-19 13:55:00,83.3,62.7,29.78,ESE,116,0.0,0.0,50,0.00,,,0.00,Wunderground v.1.15,2013-07-19 19:55:00,
2013-07-19 14:00:00,83.2,62.1,29.77,ESE,116,0.0,0.0,49,0.00,,,0.00,Wunderground v.1.15,2013-07-19 20:00:00,
2013-07-19 14:05:00,83.1,62.0,29.78,ESE,115,0.0,1.0,49,0.00,,,0.00,Wunderground v.1.15,2013-07-19 20:05:00,
2013-07-19 14:15:00,83.5,62.3,29.78,East,101,0.0,0.0,49,0.00,,,0.00,Wunderground v.1.15,2013-07-19 20:15:00,
2013-07-19 14:20:00,83.7,62.5,29.77,East,101,0.0,0.0,49,0.00,,,0.00,Wunderground v.1.15,2013-07-19 20:20:00,
2013-07-19 14:25:00,84.4,62.6,29.77,SW,214,0.0,0.0,48,0.00,,,0.00,Wunderground v.1.15,2013-07-19 20:25:00,
2013-07-19 14:30:00,85.4,62.9,29.76,South,173,0.0,0.0,47,0.00,,,0.00,Wunderground v.1.15,2013-07-19 20:30:00,
2013-07-19 14:35:00,86.5,63.3,29.75,South,173,0.0,0.0,46,0.00,,,0.00,Wunderground v.1.15,2013-07-19 20:35:00,
2013-07-19 14:40:00,86.9,62.4,29.75,SE,142,0.0,0.0,44,0.00,,,0.00,Wunderground v.1.15,2013-07-19 20:40:00,
2013-07-19 14:45:00,87.1,62.5,29.75,SW,215,0.0,0.0,44,0.00,,,0.00,Wunderground v.1.15,2013-07-19 20:45:00,
2013-07-19 14:50:00,87.4,62.8,29.75,ESE,102,0.0,0.0,44,0.00,,,0.00,Wunderground v.1.15,2013-07-19 20:50:00,
2013-07-19 14:55:00,87.5,62.9,29.74,East,99,0.0,0.0,44,0.00,,,0.00,Wunderground v.1.15,2013-07-19 20:55:00,
2013-07-19 15:00:00,87.9,62.6,29.73,ESE,105,0.0,0.0,43,0.00,,,0.00,Wunderground v.1.15,2013-07-19 21:00:00,
2013-07-19 15:05:00,88.5,63.1,29.73,NW,304,0.0,0.0,43,0.00,,,0.00,Wunderground v.1.15,2013-07-19 21:05:00,
2013-07-19 15:15:00,89.0,62.9,29.72,ESE,122,0.0,3.0,42,0.00,,,0.00,Wunderground v.1.15,2013-07-19 21:15:00,
2013-07-19 15:20:00,88.9,62.2,29.72,SE,142,0.0,0.0,41,0.00,,,0.00,Wunderground v.1.15,2013-07-19 21:20:00,
2013-07-19 15:25:00,88.5,62.5,29.72,ESE,119,0.0,0.0,42,0.00,,,0.00,Wunderground v.1.15,2013-07-19 21:25:00,
2013-07-19 15:30:00,87.9,61.9,29.71,SE,126,0.0,0.0,42,0.00,,,0.00,Wunderground v.1.15,2013-07-19 21:30:00,
2013-07-19 15:40:00,87.3,63.4,29.72,East,86,0.0,0.0,45,0.00,,,0.00,Wunderground v.1.15,2013-07-19 21:40:00,
2013-07-19 15:50:00,87.1,63.8,29.71,ESE,105,0.0,0.0,46,0.00,,,0.00,Wunderground v.1.15,2013-07-19 21:50:00,
2013-07-19 15:55:00,87.1,63.2,29.71,SE,132,0.0,0.0,45,0.00,,,0.00,Wunderground v.1.15,2013-07-19 21:55:00,
2013-07-19 16:00:00,86.9,62.4,29.70,ESE,122,0.0,0.0,44,0.00,,,0.00,Wunderground v.1.15,2013-07-19 22:00:00,
2013-07-19 16:05:00,86.6,62.1,29.70,ESE,105,1.0,1.0,44,0.00,,,0.00,Wunderground v.1.15,2013-07-19 22:05:00,
2013-07-19 16:15:00,86.3,63.1,29.70,ESE,118,0.0,0.0,46,0.00,,,0.00,Wunderground v.1.15,2013-07-19 22:15:00,
2013-07-19 16:20:00,86.1,62.3,29.70,ESE,121,0.0,0.0,45,0.00,,,0.00,Wunderground v.1.15,2013-07-19 22:20:00,
2013-07-19 16:25:00,85.9,62.1,29.70,ESE,119,0.0,0.0,45,0.00,,,0.00,Wunderground v.1.15,2013-07-19 22:25:00,
2013-07-19 16:30:00,85.8,62.0,29.69,East,101,0.0,0.0,45,0.00,,,0.00,Wunderground v.1.15,2013-07-19 22:30:00,
2013-07-19 16:40:00,85.9,63.3,29.69,ENE,78,0.0,0.0,47,0.00,,,0.00,Wunderground v.1.15,2013-07-19 22:40:00,
2013-07-19 16:45:00,85.9,62.7,29.69,ESE,108,0.0,0.0,46,0.00,,,0.00,Wunderground v.1.15,2013-07-19 22:45:00,
2013-07-19 16:55:00,85.6,61.8,29.69,SSE,150,0.0,0.0,45,0.00,,,0.00,Wunderground v.1.15,2013-07-19 22:55:00,
2013-07-19 17:00:00,85.5,62.4,29.69,ESE,111,0.0,0.0,46,0.00,,,0.00,Wunderground v.1.15,2013-07-19 23:00:00,
2013-07-19 17:05:00,85.4,62.3,29.70,East,94,0.0,0.0,46,0.00,,,0.00,Wunderground v.1.15,2013-07-19 23:05:00,
2013-07-19 17:15:00,85.3,62.2,29.70,SSE,150,1.0,3.0,46,0.00,,,0.00,Wunderground v.1.15,2013-07-19 23:15:00,
2013-07-19 17:20:00,85.3,62.2,29.69,ESE,120,1.0,1.0,46,0.00,,,0.00,Wunderground v.1.15,2013-07-19 23:20:00,
2013-07-19 17:30:00,85.2,61.5,29.69,SSE,149,2.0,2.0,45,0.00,,,0.00,Wunderground v.1.15,2013-07-19 23:30:00,
2013-07-19 17:35:00,84.5,60.8,29.69,SSE,153,2.0,2.0,45,0.00,,,0.00,Wunderground v.1.15,2013-07-19 23:35:00,
2013-07-19 17:40:00,83.9,60.9,29.69,SE,140,1.0,1.0,46,0.00,,,0.00,Wunderground v.1.15,2013-07-19 23:40:00,
2013-07-19 17:45:00,83.6,61.2,29.69,SE,130,0.0,1.0,47,0.00,,,0.00,Wunderground v.1.15,2013-07-19 23:45:00,
2013-07-19 17:55:00,83.2,60.9,29.69,SE,134,0.0,0.0,47,0.00,,,0.00,Wunderground v.1.15,2013-07-19 23:55:00,
2013-07-19 18:05:00,83.1,60.8,29.69,ESE,106,1.0,6.0,47,0.00,,,0.00,Wunderground v.1.15,2013-07-20 00:05:00,
2013-07-19 18:15:00,83.0,60.7,29.68,SSE,149,1.0,2.0,47,0.00,,,0.00,Wunderground v.1.15,2013-07-20 00:15:00,
2013-07-19 18:20:00,83.0,60.1,29.69,SSE,155,1.0,1.0,46,0.00,,,0.00,Wunderground v.1.15,2013-07-20 00:20:00,
2013-07-19 18:25:00,82.9,60.6,29.68,SSE,151,1.0,1.0,47,0.00,,,0.00,Wunderground v.1.15,2013-07-20 00:25:00,
2013-07-19 18:30:00,82.9,60.6,29.68,SE,132,1.0,1.0,47,0.00,,,0.00,Wunderground v.1.15,2013-07-20 00:30:00,
2013-07-19 18:35:00,82.9,60.6,29.68,SE,138,0.0,1.0,47,0.00,,,0.00,Wunderground v.1.15,2013-07-20 00:35:00,
2013-07-19 18:40:00,82.9,61.2,29.69,SSW,204,0.0,0.0,48,0.00,,,0.00,Wunderground v.1.15,2013-07-20 00:40:00,
2013-07-19 18:45:00,82.8,61.1,29.68,SE,136,1.0,1.0,48,0.00,,,0.00,Wunderground v.1.15,2013-07-20 00:45:00,
2013-07-19 18:50:00,82.8,60.5,29.69,SE,142,1.0,1.0,47,0.00,,,0.00,Wunderground v.1.15,2013-07-20 00:50:00,
2013-07-19 18:55:00,82.6,60.3,29.69,SSE,150,0.0,4.0,47,0.00,,,0.00,Wunderground v.1.15,2013-07-20 00:55:00,
2013-07-19 19:00:00,82.4,60.1,29.70,SE,125,0.0,0.0,47,0.00,,,0.00,Wunderground v.1.15,2013-07-20 01:00:00,
2013-07-19 19:05:00,82.3,60.1,29.69,ESE,109,0.0,0.0,47,0.00,,,0.00,Wunderground v.1.15,2013-07-20 01:05:00,
2013-07-19 19:15:00,82.0,60.4,29.69,SE,142,0.0,0.0,48,0.00,,,0.00,Wunderground v.1.15,2013-07-20 01:15:00,
2013-07-19 19:20:00,81.9,60.3,29.70,SE,138,0.0,0.0,48,0.00,,,0.00,Wunderground v.1.15,2013-07-20 01:20:00,
2013-07-19 19:25:00,81.7,60.1,29.70,SE,129,0.0,1.0,48,0.00,,,0.00,Wunderground v.1.15,2013-07-20 01:25:00,
2013-07-19 19:30:00,81.4,60.4,29.70,SE,138,0.0,0.0,49,0.00,,,0.00,Wunderground v.1.15,2013-07-20 01:30:00,
2013-07-19 19:35:00,81.2,60.8,29.70,ESE,114,0.0,0.0,50,0.00,,,0.00,Wunderground v.1.15,2013-07-20 01:35:00,
2013-07-19 19:45:00,80.7,60.9,29.70,SE,144,0.0,0.0,51,0.00,,,0.00,Wunderground v.1.15,2013-07-20 01:45:00,
2013-07-19 19:50:00,80.3,61.1,29.71,SE,145,0.0,0.0,52,0.00,,,0.00,Wunderground v.1.15,2013-07-20 01:50:00,
2013-07-19 19:55:00,80.1,60.9,29.71,SE,135,0.0,0.0,52,0.00,,,0.00,Wunderground v.1.15,2013-07-20 01:55:00,
2013-07-19 20:00:00,79.9,61.2,29.71,SE,124,0.0,0.0,53,0.00,,,0.00,Wunderground v.1.15,2013-07-20 02:00:00,
2013-07-19 20:05:00,79.7,61.1,29.70,SE,126,0.0,0.0,53,0.00,,,0.00,Wunderground v.1.15,2013-07-20 02:05:00,
2013-07-19 20:15:00,79.2,61.6,29.71,SE,133,0.0,0.0,55,0.00,,,0.00,Wunderground v.1.15,2013-07-20 02:15:00,
2013-07-19 20:20:00,78.9,61.4,29.72,ESE,123,0.0,0.0,55,0.00,,,0.00,Wunderground v.1.15,2013-07-20 02:20:00,
2013-07-19 20:25:00,78.7,61.2,29.72,SE,141,0.0,0.0,55,0.00,,,0.00,Wunderground v.1.15,2013-07-20 02:25:00,
2013-07-19 20:30:00,78.5,61.5,29.72,SSE,148,0.0,0.0,56,0.00,,,0.00,Wunderground v.1.15,2013-07-20 02:30:00,
2013-07-19 20:35:00,78.3,60.8,29.72,SSE,148,0.0,0.0,55,0.00,,,0.00,Wunderground v.1.15,2013-07-20 02:35:00,
2013-07-19 20:40:00,78.1,60.6,29.72,SE,138,0.0,0.0,55,0.00,,,0.00,Wunderground v.1.15,2013-07-20 02:40:00,
2013-07-19 20:45:00,77.9,59.9,29.73,SSE,150,0.0,0.0,54,0.00,,,0.00,Wunderground v.1.15,2013-07-20 02:45:00,
2013-07-19 20:50:00,77.8,59.8,29.73,SSE,149,0.0,0.0,54,0.00,,,0.00,Wunderground v.1.15,2013-07-20 02:50:00,
2013-07-19 20:55:00,77.6,61.2,29.73,SE,130,0.0,0.0,57,0.00,,,0.00,Wunderground v.1.15,2013-07-20 02:55:00,
2013-07-19 21:00:00,77.5,61.6,29.73,SE,137,0.0,0.0,58,0.00,,,0.00,Wunderground v.1.15,2013-07-20 03:00:00,
2013-07-19 21:05:00,77.3,61.4,29.73,SE,144,0.0,0.0,58,0.00,,,0.00,Wunderground v.1.15,2013-07-20 03:05:00,
2013-07-19 21:15:00,76.9,61.5,29.73,ESE,123,0.0,0.0,59,0.00,,,0.00,Wunderground v.1.15,2013-07-20 03:15:00,
2013-07-19 21:25:00,76.6,61.7,29.74,ESE,107,0.0,0.0,60,0.00,,,0.00,Wunderground v.1.15,2013-07-20 03:25:00,
2013-07-19 21:30:00,76.5,61.6,29.73,ESE,107,0.0,0.0,60,0.00,,,0.00,Wunderground v.1.15,2013-07-20 03:30:00,
2013-07-19 21:35:00,76.3,61.9,29.74,ESE,108,0.0,0.0,61,0.00,,,0.00,Wunderground v.1.15,2013-07-20 03:35:00,
2013-07-19 21:40:00,76.2,61.8,29.74,ESE,119,0.0,0.0,61,0.00,,,0.00,Wunderground v.1.15,2013-07-20 03:40:00,
2013-07-19 21:45:00,76.1,61.7,29.75,ESE,120,0.0,0.0,61,0.00,,,0.00,Wunderground v.1.15,2013-07-20 03:45:00,
2013-07-19 21:50:00,76.1,62.1,29.75,ESE,119,0.0,0.0,62,0.00,,,0.00,Wunderground v.1.15,2013-07-20 03:50:00,
2013-07-19 21:55:00,76.0,62.0,29.75,ESE,119,0.0,0.0,62,0.00,,,0.00,Wunderground v.1.15,2013-07-20 03:55:00,
2013-07-19 22:00:00,75.9,61.9,29.75,ESE,118,0.0,0.0,62,0.00,,,0.00,Wunderground v.1.15,2013-07-20 04:00:00,
2013-07-19 22:05:00,75.8,61.8,29.74,SE,138,0.0,0.0,62,0.00,,,0.00,Wunderground v.1.15,2013-07-20 04:05:00,
2013-07-19 22:15:00,75.6,61.7,29.74,ESE,106,0.0,0.0,62,0.00,,,0.00,Wunderground v.1.15,2013-07-20 04:15:00,
2013-07-19 22:20:00,75.5,62.0,29.74,ESE,105,0.0,0.0,63,0.00,,,0.00,Wunderground v.1.15,2013-07-20 04:20:00,
2013-07-19 22:25:00,75.4,61.9,29.74,ESE,117,0.0,0.0,63,0.00,,,0.00,Wunderground v.1.15,2013-07-20 04:25:00,
2013-07-19 22:30:00,75.3,61.8,29.74,ESE,117,0.0,0.0,63,0.00,,,0.00,Wunderground v.1.15,2013-07-20 04:30:00,
2013-07-19 22:35:00,75.3,61.8,29.75,ESE,117,0.0,0.0,63,0.00,,,0.00,Wunderground v.1.15,2013-07-20 04:35:00,
2013-07-19 22:40:00,75.2,62.2,29.75,ESE,117,0.0,0.0,64,0.00,,,0.00,Wunderground v.1.15,2013-07-20 04:40:00,
2013-07-19 22:45:00,75.1,62.1,29.75,ESE,117,0.0,0.0,64,0.00,,,0.00,Wunderground v.1.15,2013-07-20 04:45:00,
2013-07-19 22:50:00,75.0,62.0,29.75,ESE,117,0.0,0.0,64,0.00,,,0.00,Wunderground v.1.15,2013-07-20 04:50:00,
2013-07-19 23:00:00,74.8,61.8,29.75,ESE,117,0.0,0.0,64,0.00,,,0.00,Wunderground v.1.15,2013-07-20 05:00:00,
2013-07-19 23:05:00,74.6,61.6,29.73,SE,138,0.0,0.0,64,0.00,,,0.00,Wunderground v.1.15,2013-07-20 05:05:00,
2013-07-19 23:15:00,74.4,61.9,29.74,SE,135,0.0,0.0,65,0.00,,,0.00,Wunderground v.1.15,2013-07-20 05:15:00,
2013-07-19 23:20:00,74.4,61.9,29.75,ESE,109,0.0,0.0,65,0.00,,,0.00,Wunderground v.1.15,2013-07-20 05:20:00,
2013-07-19 23:25:00,74.3,61.8,29.75,SE,140,0.0,0.0,65,0.00,,,0.00,Wunderground v.1.15,2013-07-20 05:25:00,
2013-07-19 23:35:00,74.1,61.6,29.75,East,99,0.0,0.0,65,0.00,,,0.00,Wunderground v.1.15,2013-07-20 05:35:00,
2013-07-19 23:40:00,74.0,61.9,29.75,ESE,120,0.0,0.0,66,0.00,,,0.00,Wunderground v.1.15,2013-07-20 05:40:00,
2013-07-19 23:45:00,73.9,61.8,29.75,SE,138,0.0,0.0,66,0.00,,,0.00,Wunderground v.1.15,2013-07-20 05:45:00,
2013-07-19 23:50:00,73.8,61.7,29.74,SE,126,0.0,0.0,66,0.00,,,0.00,Wunderground v.1.15,2013-07-20 05:50:00,
2013-07-19 23:55:00,73.7,61.6,29.74,SSE,160,0.0,0.0,66,0.00,,,0.00,Wunderground v.1.15,2013-07-20 05:55:00,